Weather History for Los Alamos, NM

Change the Weather History Date:

Saturday, January 11, 2014

  Actual Average Record
Temperature  
Mean Temperature 38 °F -  
Max Temperature 47 °F 39 °F 59 °F (1956)
Min Temperature 30 °F 18 °F -9 °F (1962)
Degree Days  
Heating Degree Days 26    
Moisture  
Dew Point 14 °F    
Average Humidity 37    
Maximum Humidity 50    
Minimum Humidity 24    
Precipitation  
Precipitation 0.00 in - - ()
Sea Level Pressure  
Sea Level Pressure 30.16 in    
Wind  
Wind Speed 3 mph (SE)    
Max Wind Speed 8 mph    
Max Gust Speed -    
Visibility 10 miles    
Events      
Averages and records for this station are not official NWS values.
T = Trace of Precipitation, MM = Missing Value Source: NWS Daily Summary

Daily Weather History Graph

Daily Weather History Graph

Search for Another Location

Airport:

Trip Planner

Search our weather history database for the weather conditions in past years. The results will help you decide how hot, cold, wet, or windy it might be!

Date:

Astronomy

Jan. 11, 2014 Rise Set
Actual Time 7:15 AM MST 5:10 PM MST
Civil Twilight 6:47 AM MST 5:38 PM MST
Nautical Twilight 6:15 AM MST 6:10 PM MST
Astronomical Twilight 5:44 AM MST 6:41 PM MST
Moon 1:55 PM MST (1/11) 3:24 AM MST (1/11)
Length of Visible Light 10h 51m
Length of Day
9h 55m
Waxing Gibbous, 83% of the Moon is Illuminated
Jan 11
Waxing Gibbous
Jan 15
Full
Jan 23
Last Quarter
Jan 30
New
Feb 6
First Quarter

Hourly Weather History & Observations

Time (MST) Temp. Windchill Dew Point Humidity Pressure Visibility Wind Dir Wind Speed Gust Speed Precip Events Conditions
12:15 AM 35.1 °F - 10.2 °F 36% 30.13 in 10.0 mi Calm Calm - N/A   Clear
12:35 AM 34.7 °F - 10.0 °F 36% 30.13 in 10.0 mi Calm Calm - N/A   Clear
12:55 AM 36.9 °F 34.3 °F 10.2 °F 33% 30.13 in 10.0 mi NNW 3.5 mph - N/A   Clear
1:15 AM 35.1 °F - 10.6 °F 36% 30.15 in 10.0 mi Calm Calm - N/A   Clear
1:35 AM 34.3 °F 29.2 °F 10.4 °F 37% 30.15 in 10.0 mi ESE 5.8 mph - N/A   Clear
1:55 AM 34.2 °F 30.0 °F 10.4 °F 37% 30.17 in 10.0 mi SW 4.6 mph - N/A   Clear
2:15 AM 35.8 °F - 10.2 °F 35% 30.17 in 10.0 mi Calm Calm - N/A   Clear
2:35 AM 37.6 °F 35.1 °F 10.6 °F 33% 30.18 in 10.0 mi ENE 3.5 mph - N/A   Clear
2:55 AM 34.9 °F 32.0 °F 10.4 °F 36% 30.19 in 10.0 mi East 3.5 mph - N/A   Clear
3:15 AM 34.0 °F 29.8 °F 10.8 °F 38% 30.19 in 10.0 mi SE 4.6 mph - N/A   Clear
3:35 AM 33.8 °F 30.8 °F 11.3 °F 39% 30.19 in 10.0 mi North 3.5 mph - N/A   Clear
3:55 AM 32.4 °F 29.1 °F 12.2 °F 43% 30.19 in 10.0 mi NNE 3.5 mph - N/A   Clear
4:15 AM 32.0 °F 27.5 °F 12.2 °F 44% 30.19 in 10.0 mi NE 4.6 mph - N/A   Clear
4:35 AM 32.0 °F 27.5 °F 12.9 °F 45% 30.19 in 10.0 mi North 4.6 mph - N/A   Clear
4:55 AM 32.0 °F 26.4 °F 13.5 °F 46% 30.19 in 10.0 mi North 5.8 mph - N/A   Clear
5:15 AM 31.1 °F 23.7 °F 13.8 °F 49% 30.19 in 10.0 mi North 8.1 mph - N/A   Clear
5:35 AM 31.6 °F 25.1 °F 13.8 °F 48% 30.20 in 10.0 mi North 6.9 mph - N/A   Clear
5:55 AM 31.3 °F 26.6 °F 14.0 °F 49% 30.19 in 10.0 mi NNW 4.6 mph - N/A   Clear
6:15 AM 30.9 °F - 14.0 °F 50% 30.20 in 10.0 mi Calm Calm - N/A   Clear
6:35 AM 31.1 °F - 14.0 °F 49% 30.21 in 10.0 mi Calm Calm - N/A   Clear
6:55 AM 30.7 °F - 14.0 °F 50% 30.21 in 10.0 mi Calm Calm - N/A   Clear
7:15 AM 31.1 °F - 14.0 °F 49% 30.21 in 10.0 mi Calm Calm - N/A   Clear
7:35 AM 31.1 °F 27.7 °F 14.0 °F 49% 30.21 in 10.0 mi North 3.5 mph - N/A   Clear
7:55 AM 31.1 °F 27.7 °F 14.0 °F 49% 30.22 in 10.0 mi North 3.5 mph - N/A   Clear
8:15 AM 31.1 °F - 14.4 °F 50% 30.22 in 10.0 mi Calm Calm - N/A   Clear
8:35 AM 32.0 °F - 14.2 °F 48% 30.23 in 10.0 mi Calm Calm - N/A   Clear
8:55 AM 32.9 °F 29.8 °F 14.4 °F 47% 30.24 in 10.0 mi South 3.5 mph - N/A   Clear
9:15 AM 34.5 °F 31.6 °F 14.7 °F 44% 30.25 in 10.0 mi SW 3.5 mph - N/A   Clear
9:30 AM 36.1 °F - 14.5 °F 41% 30.25 in 10.0 mi Calm Calm - N/A   Clear
9:55 AM 38.5 °F - 14.2 °F 37% 30.25 in 10.0 mi Calm Calm - N/A   Clear
10:10 AM 39.6 °F - 14.0 °F 35% 30.24 in 10.0 mi Calm Calm - N/A   Clear
1:00 PM 44.6 °F 40.2 °F 11.5 °F 26% 30.21 in 10.0 mi South 8.1 mph - N/A   Clear
1:15 PM 45.0 °F 40.6 °F 11.7 °F 26% 30.20 in 10.0 mi South 8.1 mph - N/A   Clear
1:35 PM 45.0 °F 41.2 °F 11.5 °F 26% 30.18 in 10.0 mi SE 6.9 mph - N/A   Clear
1:55 PM 46.0 °F 42.5 °F 11.8 °F 25% 30.17 in 10.0 mi SE 6.9 mph - N/A   Clear
2:15 PM 46.2 °F 42.2 °F 11.3 °F 24% 30.17 in 10.0 mi South 8.1 mph - N/A   Clear
2:35 PM 46.4 °F 43.5 °F 11.7 °F 25% 30.17 in 10.0 mi South 5.8 mph - N/A   Clear
2:55 PM 46.8 °F - 11.5 °F 24% 30.16 in 10.0 mi South 3.5 mph - N/A   Clear
3:15 PM 47.5 °F - 11.8 °F 24% 30.15 in 10.0 mi SSW 3.5 mph - N/A   Clear
3:35 PM 46.6 °F - 12.2 °F 25% 30.15 in 10.0 mi SSE 5.8 mph - N/A   Clear
3:55 PM 46.2 °F 42.7 °F 12.9 °F 26% 30.15 in 10.0 mi SSE 6.9 mph - N/A   Clear
4:15 PM 45.9 °F 42.3 °F 13.1 °F 27% 30.15 in 10.0 mi SE 6.9 mph - N/A   Clear
4:35 PM 45.5 °F 43.2 °F 14.0 °F 28% 30.14 in 10.0 mi South 4.6 mph - N/A   Clear
4:55 PM 45.3 °F - 14.0 °F 28% 30.14 in 10.0 mi Calm Calm - N/A   Clear
5:15 PM 44.1 °F 42.5 °F 14.5 °F 30% 30.14 in 10.0 mi South 3.5 mph - N/A   Clear
5:35 PM 43.7 °F 42.1 °F 14.9 °F 31% 30.14 in 10.0 mi South 3.5 mph - N/A   Clear
5:55 PM 43.5 °F - 14.9 °F 32% 30.14 in 10.0 mi Calm Calm - N/A   Clear
6:15 PM 43.5 °F 41.9 °F 14.9 °F 32% 30.14 in 10.0 mi South 3.5 mph - N/A   Clear
6:35 PM 42.1 °F 38.4 °F 15.6 °F 34% 30.14 in 10.0 mi South 5.8 mph - N/A   Clear
6:55 PM 40.8 °F 37.8 °F 16.2 °F 37% 30.14 in 10.0 mi SSW 4.6 mph - N/A   Clear
7:15 PM 41.2 °F 37.3 °F 16.2 °F 36% 30.14 in 10.0 mi WSW 5.8 mph - N/A   Clear
7:35 PM 41.0 °F - 16.3 °F 37% 30.13 in 10.0 mi Calm Calm - N/A   Clear
7:55 PM 43.7 °F - 15.4 °F 32% 30.12 in 10.0 mi Calm Calm - N/A   Clear
8:15 PM 42.4 °F - 15.6 °F 34% 30.12 in 10.0 mi Calm Calm - N/A   Clear
8:35 PM 41.7 °F - 15.8 °F 35% 30.12 in 10.0 mi Calm Calm - N/A   Clear
8:55 PM 42.1 °F - 15.8 °F 35% 30.11 in 10.0 mi Calm Calm - N/A   Clear
9:15 PM 43.0 °F - 15.4 °F 33% 30.10 in 10.0 mi Calm Calm - N/A   Clear
9:35 PM 42.3 °F 40.5 °F 15.6 °F 34% 30.10 in 10.0 mi SE 3.5 mph - N/A   Clear
9:55 PM 41.5 °F 39.6 °F 15.8 °F 35% 30.09 in 10.0 mi East 3.5 mph - N/A   Clear
10:15 PM 38.1 °F - 16.9 °F 42% 30.09 in 10.0 mi Calm Calm - N/A   Clear
10:35 PM 40.1 °F 38.0 °F 16.7 °F 39% 30.08 in 10.0 mi ENE 3.5 mph - N/A   Clear
10:55 PM 40.3 °F 37.1 °F 16.5 °F 38% 30.06 in 10.0 mi East 4.6 mph - N/A   Clear
11:15 PM 38.8 °F - 16.7 °F 41% 30.06 in 10.0 mi Calm Calm - N/A   Clear
11:35 PM 36.7 °F 32.9 °F 17.2 °F 45% 30.03 in 10.0 mi East 4.6 mph - N/A   Clear
11:55 PM 34.7 °F - 17.6 °F 50% 30.04 in 10.0 mi Calm Calm - N/A   Clear